[[{"header":{"parameterUnit":"m.s-1","parameterCategory":1,"la1":30.2991,"la2":30.254,"lo1":-89.0895,"lo2":-89.0444,"dx":0.0017,"dy":0.0017,"nx":28,"ny":28,"refTime":"2022-11-07T09:00:00:Z","depth":0,"parameterNumber":2,"parameterNumberName":"U-component_of_WINDS"},"data":[0,0,0,0,0,0,0,0,0,0,0,0,0,0,0,0,0,0,0,0,0,0,0,0,0,0,0,0,0,0,0,0,0,0,0,0,0,0,0,0,0,0,0,0,0,0,0,0,0,0,0,0,0,0,0,0,0,0,-5.2137,-5.2139,0,-5.226,-5.2262,-5.2263,-5.2142,-5.2137,-5.2133,-5.2128,-5.2259,-5.2266,-5.2274,0,0,0,0,0,0,0,0,0,0,0,0,0,-5.1803,-5.181,-5.2137,-5.2139,-5.214,-5.226,-5.2262,-5.2264,-5.2143,-5.2137,-5.2131,-5.2126,-5.2256,-5.2265,-5.2275,0,0,0,0,0,0,0,0,0,0,0,0,0,-5.1939,-5.1812,-5.2137,-5.2094,-5.2092,-5.226,-5.2262,-5.2264,-5.2144,-5.2137,-5.213,-5.2123,-5.2253,-5.2265,-5.2276,-5.2494,0,0,-5.2313,-5.2318,0,0,0,0,0,0,0,0,-5.1932,-5.1952,-5.2099,-5.2098,-5.2095,-5.2178,-5.2192,-5.2341,-5.2146,-5.2125,-5.2128,-5.212,-5.2238,-5.2251,-5.229,-5.25,-5.2505,-5.2314,-5.2321,-5.2326,-5.233,0,0,0,0,0,0,0,-5.1922,-5.1946,-5.2186,-5.2102,-5.2099,-5.2071,-5.2082,-5.2219,-5.222,-5.2126,-5.2117,-5.2133,-5.2236,-5.2279,-5.2292,-5.2507,-5.2313,-5.2324,-5.2331,-5.2336,-5.2905,-5.2912,0,0,0,0,0,0,-5.1917,-5.1939,-5.2182,-5.219,-5.1994,-5.2083,-5.2096,-5.2159,-5.2218,-5.222,-5.2139,-5.2127,-5.2262,-5.2278,-5.2296,-5.2557,-5.2326,-5.2337,-5.2344,-5.2897,-5.2906,-5.2915,0,0,0,0,0,0,-5.191,-5.194,-5.2177,-5.2062,-5.209,-5.2096,-5.2168,-5.2165,-5.2208,-5.2229,-5.2229,-5.2183,-5.2257,-5.2279,-5.2446,-5.256,-5.2343,-5.2353,-5.2887,-5.29,-5.2911,-5.3079,0,0,0,0,0,0,-5.1901,-5.1938,-5.202,-5.2065,-5.2097,-5.2324,-5.2175,-5.2173,-5.2228,-5.2214,-5.2269,-5.2272,-5.2253,-5.2429,-5.2458,-5.2572,-5.2363,-5.2877,-5.2893,-5.2907,-5.3063,-5.3095,-5.3122,0,0,0,0,0,-5.189,-5.2062,-5.2024,-5.2054,-5.2198,-5.233,-5.2349,-5.2322,-5.2238,-5.2321,-5.2334,-5.227,-5.2542,-5.2447,-5.2478,-5.2598,-5.287,-5.2888,-5.2906,-5.305,-5.3089,-5.3121,0,0,0,0,0,0,-5.2032,-5.2067,-5.2026,-5.2218,-5.2272,-5.231,-5.2413,-5.2364,-5.2444,-5.2428,-5.2392,-5.2406,-5.2583,-5.2606,-5.25,-5.2813,-5.2693,-5.2718,-5.2791,-5.2828,-5.2857,-5.2849,-5.2373,0,0,0,0,0,-5.2085,-5.2188,-5.2214,-5.2381,-5.241,-5.2408,-5.2464,-5.2439,-5.2494,-5.2517,-5.2542,-5.26,-5.2698,-5.2764,-5.2856,-5.3065,-5.3077,-5.3163,-5.3193,-5.3217,-5.324,-5.3355,-5.3395,-5.2974,-5.2974,-5.2973,0,0,-5.2197,-5.2229,-5.2296,-5.2411,-5.2449,-5.2559,-5.2428,-5.2548,-5.263,-5.2536,-5.2695,-5.2716,-5.2778,-5.2967,-5.3052,-5.2993,-5.3358,-5.324,-5.3259,-5.3269,-5.3378,-5.3417,-5.3453,-5.2986,-5.2984,-5.2982,0,0,-5.2457,-5.2491,-5.2635,-5.2677,-5.2737,-5.2734,-5.2769,-5.2815,-5.2825,-5.2984,-5.2916,-5.3013,-5.3182,-5.323,-5.3277,-5.3557,-5.3502,-5.3587,-5.3743,-5.3856,-5.3889,-5.3918,-5.4021,-5.4058,-5.361,-5.361,-5.361,0,-5.2589,-5.275,-5.2716,-5.2842,-5.2895,-5.2814,-5.2961,-5.3003,-5.3091,-5.3131,-5.3062,-5.3275,-5.3311,-5.3512,-5.358,-5.362,-5.366,-5.3582,-5.3886,-5.3915,-5.3942,-5.404,-5.4078,-5.362,-5.3619,-5.3618,-5.3617,0,-5.2911,-5.3023,-5.3132,-5.3219,-5.3284,-5.342,-5.3409,-5.3479,-5.3449,-5.3454,-5.3618,-5.3658,-5.3757,-5.3803,-5.3774,-5.4001,-5.3962,-5.3891,-5.377,-5.3993,-5.4085,-5.4121,-5.3635,-5.3631,-5.3628,-5.3626,0,0,-5.3265,-5.3331,-5.3372,-5.3411,-5.3472,-5.3559,-5.3692,-5.3788,-5.3851,-5.3915,-5.4028,-5.4173,-5.4108,-5.4161,-5.4137,-5.4236,-5.4459,-5.4152,-5.4153,-5.4211,-5.4714,-5.477,-5.4813,-5.4421,-5.4428,-5.4434,-5.471,0,-5.3529,-5.3759,-5.3733,-5.3953,-5.4058,-5.3983,-5.4099,-5.4151,-5.416,-5.4251,-5.4261,-5.4366,-5.427,-5.4302,-5.4396,-5.4412,-5.456,-5.4391,-5.4529,-5.4534,-5.4518,-5.4861,-5.4919,-5.5178,-5.4745,-5.4751,-5.4756,0,-5.3868,-5.3943,-5.4174,-5.4221,-5.4264,-5.4369,-5.4456,-5.4544,-5.4602,-5.4601,-5.4661,-5.462,-5.4757,-5.4631,-5.482,-5.4706,-5.476,-5.4777,-5.4786,-5.48,-5.466,-5.4887,-5.5259,-5.53,-5.4811,-5.4806,-5.4802,0,-5.4106,-5.4265,-5.4425,-5.446,-5.4518,-5.4594,-5.4622,-5.4672,-5.4732,-5.4809,-5.4848,-5.494,-5.4991,-5.5064,-5.505,-5.496,-5.5244,-5.5117,-5.525,-5.5251,-5.5315,-5.5312,-5.5705,-5.5347,-5.5346,-5.5345,-5.5345,0,-5.4405,-5.4551,-5.4533,-5.4632,-5.4793,-5.4762,-5.4923,-5.4941,-5.4987,-5.5089,-5.5029,-5.5127,-5.5101,-5.5199,-5.5189,-5.5349,-5.5371,-5.5377,-5.5373,-5.5384,-5.5384,-5.5421,-5.5404,-5.5356,-5.5353,-5.5351,-5.535,0,-5.47,-5.4693,-5.4863,-5.4904,-5.4917,-5.5035,-5.5071,-5.5165,-5.5168,-5.5299,-5.5328,-5.5334,-5.5446,-5.5439,-5.5565,-5.5558,-5.5757,-5.573,-5.5737,-5.5733,-5.5867,-5.5856,-5.6301,-5.6359,-5.596,-5.5964,-5.5967,0,-5.4892,-5.5002,-5.5055,-5.5119,-5.5152,-5.5255,-5.5316,-5.529,-5.5357,-5.5432,-5.5518,-5.5623,-5.5707,-5.5889,-5.5907,-5.6004,-5.5981,-5.613,-5.5995,-5.6004,-5.5987,-5.5982,-5.5994,-5.6158,-5.6162,-5.6166,-5.6169,0,-5.5236,-5.5228,-5.5317,-5.5407,-5.5481,-5.5551,-5.5614,-5.567,-5.5651,-5.5729,-5.5842,-5.5907,-5.6036,-5.6143,-5.6236,-5.6266,-5.6217,-5.6211,-5.6247,-5.6261,-5.6262,-5.6266,-5.5813,-5.6201,-5.6198,-5.6196,-5.6194,-5.6192,-5.5487,-5.5582,-5.5635,-5.5737,-5.5782,-5.5843,-5.5934,-5.5949,-5.6042,-5.6145,-5.6124,-5.6252,-5.6309,-5.6428,-5.6467,-5.6569,-5.6515,-5.6568,-5.6581,-5.6595,-5.6612,-5.6243,-5.6585,-5.6584,-5.6583,-5.6582,-5.6582,0,-5.5829,-5.586,-5.5954,-5.6045,-5.6126,-5.6069,-5.6137,-5.621,-5.6323,-5.6379,-5.6462,-5.6594,-5.6698,-5.6724,-5.6824,-5.69,-5.688,-5.6928,-5.6923,-5.6932,-5.6652,-5.6612,-5.6943,-5.6943,-5.6943,-5.6943,-5.6943,-5.6943,-5.6017,-5.6176,-5.6175,-5.6356,-5.6385,-5.6509,-5.6553,-5.661,-5.6655,-5.6804,-5.689,-5.6905,-5.6951,-5.7054,-5.7148,-5.7153,-5.7194,-5.7252,-5.7248,-5.6987,-5.6951,-5.6917,-5.6879,-5.726,-5.7261,-5.752,-5.7522,-5.7524]},{"header":{"parameterUnit":"m.s-1","parameterCategory":1,"la1":30.2991,"la2":30.254,"lo1":-89.0895,"lo2":-89.0444,"dx":0.0017,"dy":0.0017,"nx":28,"ny":28,"refTime":"2022-11-07T09:00:00:Z","depth":0,"parameterNumber":3,"parameterNumberName":"V-component_of_WINDS"},"data":[0,0,0,0,0,0,0,0,0,0,0,0,0,0,0,0,0,0,0,0,0,0,0,0,0,0,0,0,0,0,0,0,0,0,0,0,0,0,0,0,0,0,0,0,0,0,0,0,0,0,0,0,0,0,0,0,0,0,-1.9699,-1.9699,0,-1.977,-1.9771,-1.9772,-1.9767,-1.9766,-1.9765,-1.9764,-1.9838,-1.9841,-1.9844,0,0,0,0,0,0,0,0,0,0,0,0,0,-1.9557,-1.9559,-1.9699,-1.9699,-1.97,-1.977,-1.9771,-1.9772,-1.9767,-1.9766,-1.9765,-1.9764,-1.9837,-1.9841,-1.9844,0,0,0,0,0,0,0,0,0,0,0,0,0,-1.9622,-1.956,-1.9698,-1.9706,-1.9708,-1.977,-1.9771,-1.9773,-1.9768,-1.9766,-1.9765,-1.9763,-1.9836,-1.984,-1.9845,-1.9904,0,0,-1.9858,-1.986,0,0,0,0,0,0,0,0,-1.9619,-1.9628,-1.9704,-1.9706,-1.9708,-1.9758,-1.9748,-1.9817,-1.9768,-1.9745,-1.9764,-1.9762,-1.9813,-1.9819,-1.9836,-1.9907,-1.9911,-1.9859,-1.9861,-1.9863,-1.9865,0,0,0,0,0,0,0,-1.9614,-1.9625,-1.9727,-1.9705,-1.9707,-1.9706,-1.9714,-1.9761,-1.9787,-1.9747,-1.9747,-1.9755,-1.9814,-1.9832,-1.9838,-1.9912,-1.9859,-1.9862,-1.9865,-1.9867,-2.0035,-2.0037,0,0,0,0,0,0,-1.9608,-1.9621,-1.9725,-1.9729,-1.9658,-1.971,-1.9719,-1.9744,-1.9786,-1.9791,-1.9757,-1.9755,-1.9825,-1.9833,-1.984,-1.9913,-1.9863,-1.9867,-1.987,-2.0033,-2.0035,-2.0037,0,0,0,0,0,0,-1.9605,-1.9617,-1.9722,-1.9675,-1.9688,-1.9714,-1.9742,-1.9746,-1.9764,-1.9794,-1.9798,-1.9771,-1.9824,-1.9834,-1.9888,-1.9915,-1.9869,-1.9873,-2.0031,-2.0034,-2.0036,-2.0057,0,0,0,0,0,0,-1.9601,-1.9616,-1.9639,-1.9676,-1.9691,-1.9768,-1.9744,-1.9748,-1.9772,-1.977,-1.9808,-1.9813,-1.9824,-1.9881,-1.9892,-1.992,-1.9877,-2.0029,-2.0032,-2.0035,-2.0054,-2.006,-2.0065,0,0,0,0,0,-1.9596,-1.9642,-1.964,-1.9653,-1.972,-1.977,-1.9779,-1.979,-1.9774,-1.9797,-1.9816,-1.9812,-1.991,-1.9887,-1.9899,-1.9929,-2.0027,-2.0031,-2.0035,-2.0052,-2.0059,-2.0065,0,0,0,0,0,0,-1.9609,-1.9647,-1.9645,-1.9705,-1.9734,-1.9769,-1.9799,-1.9797,-1.9832,-1.9829,-1.9841,-1.985,-1.9904,-1.9922,-1.9895,-1.9988,-1.9966,-1.9973,-1.9975,-1.9982,-1.9988,-1.9983,-1.9881,0,0,0,0,0,-1.9618,-1.9656,-1.9687,-1.9737,-1.9752,-1.9773,-1.9795,-1.9801,-1.9832,-1.9844,-1.9867,-1.9897,-1.9935,-1.9959,-1.9996,-2.0057,-2.0065,-2.0083,-2.0088,-2.0093,-2.0099,-2.0132,-2.0141,-2.005,-2.005,-2.005,0,0,-1.9639,-1.9664,-1.9688,-1.974,-1.9764,-1.9802,-1.9783,-1.9825,-1.9853,-1.9851,-1.9903,-1.9921,-1.9955,-2.0013,-2.0039,-2.0029,-2.0125,-2.0098,-2.0101,-2.0105,-2.0137,-2.0146,-2.0153,-2.0053,-2.0053,-2.0052,0,0,-1.9696,-1.9719,-1.9763,-1.9787,-1.9822,-1.9836,-1.9846,-1.9881,-1.9893,-1.9945,-1.9944,-1.9978,-2.0043,-2.0067,-2.0088,-2.0154,-2.0151,-2.0165,-2.0195,-2.0227,-2.0234,-2.024,-2.0264,-2.0272,-2.0171,-2.0171,-2.0171,0,-1.9717,-1.9775,-1.9786,-1.9828,-1.9851,-1.9849,-1.9894,-1.9916,-1.9962,-1.9978,-1.9966,-2.0046,-2.0069,-2.0133,-2.0149,-2.0166,-2.0178,-2.0161,-2.0232,-2.0239,-2.0245,-2.0267,-2.0276,-2.0172,-2.0172,-2.0172,-2.0172,0,-1.9799,-1.984,-1.9871,-1.9914,-1.9941,-1.9984,-2.0001,-2.0026,-2.003,-2.0045,-2.0098,-2.0125,-2.0167,-2.0182,-2.0186,-2.0246,-2.0239,-2.0229,-2.0208,-2.0255,-2.0276,-2.0285,-2.0174,-2.0174,-2.0173,-2.0173,0,0,-1.9867,-1.9916,-1.9927,-1.9947,-1.9986,-2.0017,-2.0059,-2.01,-2.0122,-2.0153,-2.0189,-2.0243,-2.0235,-2.0258,-2.0265,-2.0293,-2.0344,-2.028,-2.0281,-2.0291,-2.0411,-2.0419,-2.0428,-2.0342,-2.0343,-2.0345,-2.0408,0,-1.9929,-2.0004,-2.0015,-2.0082,-2.0119,-2.0118,-2.0155,-2.0182,-2.0197,-2.0231,-2.0247,-2.0285,-2.0271,-2.0285,-2.0313,-2.0332,-2.0368,-2.0327,-2.0376,-2.0377,-2.0368,-2.044,-2.0448,-2.0506,-2.0417,-2.0418,-2.0419,0,-2.0011,-2.0044,-2.0114,-2.0148,-2.0164,-2.0197,-2.0235,-2.0267,-2.0298,-2.0306,-2.0333,-2.0335,-2.0379,-2.0355,-2.0416,-2.0388,-2.0409,-2.0421,-2.0423,-2.0429,-2.0402,-2.0447,-2.0526,-2.0534,-2.0433,-2.0432,-2.0431,0,-2.0053,-2.0116,-2.0166,-2.0183,-2.0223,-2.0246,-2.0264,-2.0293,-2.0317,-2.035,-2.0365,-2.0403,-2.0424,-2.0453,-2.0466,-2.0447,-2.0526,-2.0503,-2.0535,-2.0534,-2.0552,-2.0551,-2.0635,-2.0564,-2.0564,-2.0564,-2.0564,0,-2.0121,-2.0164,-2.0186,-2.0217,-2.0265,-2.0276,-2.0324,-2.034,-2.0367,-2.0401,-2.0402,-2.0434,-2.0449,-2.0483,-2.0494,-2.0543,-2.0552,-2.056,-2.0563,-2.056,-2.0559,-2.0574,-2.0571,-2.0566,-2.0566,-2.0565,-2.0565,0,-2.0177,-2.0193,-2.0248,-2.0281,-2.029,-2.0325,-2.0353,-2.0383,-2.0397,-2.044,-2.0451,-2.0473,-2.0513,-2.0529,-2.0578,-2.0585,-2.0642,-2.0641,-2.0631,-2.0632,-2.0663,-2.066,-2.076,-2.0774,-2.0694,-2.0694,-2.0695,0,-2.022,-2.0253,-2.0289,-2.0312,-2.0331,-2.0368,-2.0392,-2.0404,-2.0429,-2.0466,-2.0492,-2.0532,-2.0565,-2.0629,-2.065,-2.0687,-2.0688,-2.072,-2.0693,-2.069,-2.0688,-2.0686,-2.069,-2.0725,-2.0726,-2.0727,-2.0727,0,-2.0293,-2.0299,-2.0334,-2.0371,-2.04,-2.043,-2.0459,-2.0477,-2.0494,-2.0522,-2.0563,-2.0588,-2.0638,-2.0678,-2.0717,-2.0735,-2.0734,-2.0735,-2.0745,-2.0743,-2.0736,-2.0741,-2.0645,-2.0733,-2.0732,-2.0732,-2.0732,-2.0731,-2.0344,-2.0374,-2.0404,-2.0442,-2.0465,-2.0492,-2.0522,-2.0539,-2.0574,-2.0616,-2.062,-2.0665,-2.0695,-2.0746,-2.0766,-2.0801,-2.0792,-2.0806,-2.0809,-2.0813,-2.0815,-2.073,-2.0808,-2.0808,-2.0808,-2.0808,-2.0807,0,-2.0418,-2.0437,-2.0472,-2.0513,-2.0543,-2.0539,-2.057,-2.0596,-2.0635,-2.0663,-2.0695,-2.0742,-2.078,-2.0804,-2.0843,-2.0866,-2.0866,-2.0876,-2.0874,-2.0879,-2.082,-2.0808,-2.0875,-2.0875,-2.0875,-2.0875,-2.0875,-2.0875,-2.046,-2.051,-2.0519,-2.058,-2.0599,-2.0642,-2.0661,-2.0685,-2.0708,-2.076,-2.0792,-2.0807,-2.0833,-2.0874,-2.0909,-2.0915,-2.0929,-2.0939,-2.0945,-2.089,-2.0883,-2.0876,-2.0865,-2.0942,-2.0942,-2.1,-2.1001,-2.1001]}]]